{"data":{"norad_id":35942,"epoch":"2026-09-20T03:56:36.864384Z","epoch_age_seconds":54769,"freshness":"FRESH","line1":"1 35942U 09054A   26263.16431556 -.00000263  00000+0  00000+0 0  9991","line2":"2 35942   2.0535  81.7131 0003305  90.6197 173.8980  1.00271807 62138","mean_motion":1.00271807,"eccentricity":0.0003305,"inclination_deg":2.0535,"raan_deg":81.7131,"arg_perigee_deg":90.6197,"mean_anomaly_deg":173.898,"bstar":0,"rev_number":6213,"period_min":1436.0965889445,"perigee_km":35772.653351918,"apogee_km":35800.524235668,"semimajor_km":42164.725793793,"source":"CELESTRAK","updated_at":"2026-09-20T09:00:35.159546Z"}}